RYR6WK LROP-LOWW

Flight info

Callsign RYR6WK
Flight time 1h 31m
Altitude 38000
Route SOKRU DCT OXDOC DCT ULMIN DCT DEGET DCT ERGUZ DCT BALUX DCT TORNO DCT NATEX NATEX2W
Aircraft B738/M-SDE2E3FGHIRWXY/LB1

Departure

Time 2026-05-04 13:17
Airport Bucharest Henri Coandă International Airport (LROP)

Arrival

Time 2026-05-04 14:49
Airport Vienna International Airport (LOWW)
Time Latitude Longitude Altitude Speed Heading
2026-05-04 12:25 44.57252 26.07929 316 ft 0 kts 354°
2026-05-04 13:04 44.57251 26.07929 316 ft 0 kts 354°
2026-05-04 13:04 44.57238 26.07933 316 ft 2 kts 346°
2026-05-04 13:05 44.57223 26.07937 316 ft 2 kts 353°
2026-05-04 13:05 44.57208 26.07934 316 ft 2 kts 26°
2026-05-04 13:05 44.57196 26.07922 317 ft 2 kts 52°
2026-05-04 13:05 44.57190 26.07904 317 ft 1 kts 79°
2026-05-04 13:06 44.57189 26.07895 317 ft 1 kts 86°
2026-05-04 13:06 44.57189 26.07891 317 ft 0 kts 85°
2026-05-04 13:10 44.57190 26.07908 317 ft 5 kts 84°
2026-05-04 13:10 44.57196 26.07995 316 ft 12 kts 84°
2026-05-04 13:10 44.57207 26.08135 316 ft 14 kts 83°
2026-05-04 13:10 44.57218 26.08277 314 ft 15 kts 83°
2026-05-04 13:11 44.57231 26.08423 314 ft 14 kts 83°
2026-05-04 13:11 44.57176 26.08513 312 ft 14 kts 170°
2026-05-04 13:11 44.57075 26.08532 310 ft 15 kts 174°
2026-05-04 13:11 44.56966 26.08544 309 ft 15 kts 175°
2026-05-04 13:12 44.56895 26.08454 308 ft 17 kts 261°
2026-05-04 13:12 44.56848 26.08299 311 ft 16 kts 243°
2026-05-04 13:12 44.56803 26.08176 315 ft 12 kts 244°
2026-05-04 13:12 44.56769 26.08066 315 ft 12 kts 252°
2026-05-04 13:13 44.56748 26.07949 317 ft 12 kts 256°
2026-05-04 13:13 44.56726 26.07838 317 ft 11 kts 254°
2026-05-04 13:13 44.56709 26.07753 317 ft 0 kts 253°
2026-05-04 13:14 44.56704 26.07733 317 ft 6 kts 252°
2026-05-04 13:15 44.56666 26.07669 316 ft 9 kts 201°
2026-05-04 13:15 44.56603 26.07669 316 ft 4 kts 173°
2026-05-04 13:15 44.56602 26.07669 316 ft 0 kts 173°
2026-05-04 13:16 44.56590 26.07672 316 ft 6 kts 173°
2026-05-04 13:16 44.56526 26.07682 315 ft 11 kts 174°
2026-05-04 13:16 44.56472 26.07743 314 ft 11 kts 89°
2026-05-04 13:16 44.56472 26.07760 314 ft 0 kts 85°
2026-05-04 13:17 44.56490 26.08016 312 ft 69 kts 84°
2026-05-04 13:17 44.56552 26.09090 307 ft 149 kts 86°
2026-05-04 13:17 44.56610 26.10709 811 ft 172 kts 87°
2026-05-04 13:17 44.56601 26.12224 1954 ft 151 kts 92°
2026-05-04 13:18 44.56480 26.13687 2467 ft 168 kts 97°
2026-05-04 13:18 44.56350 26.15682 2198 ft 231 kts 83°
2026-05-04 13:18 44.56749 26.17881 3009 ft 239 kts 68°
2026-05-04 13:18 44.57236 26.19970 4309 ft 227 kts 71°
2026-05-04 13:19 44.57836 26.22036 5062 ft 235 kts 53°
2026-05-04 13:19 44.58989 26.23660 5795 ft 244 kts 32°
2026-05-04 13:19 44.60535 26.24686 6648 ft 251 kts 16°
2026-05-04 13:19 44.62268 26.24836 7607 ft 257 kts 351°
2026-05-04 13:20 44.63874 26.23799 8545 ft 268 kts 327°
2026-05-04 13:20 44.65175 26.21903 9489 ft 276 kts 315°
2026-05-04 13:20 44.66387 26.19796 10335 ft 281 kts 316°
2026-05-04 13:20 44.67857 26.17979 10846 ft 286 kts 338°
2026-05-04 13:21 44.69759 26.17198 11406 ft 291 kts 357°
2026-05-04 13:21 44.71822 26.17016 11916 ft 305 kts
2026-05-04 13:21 44.73962 26.16949 12641 ft 314 kts 359°
2026-05-04 13:21 44.76129 26.16207 13357 ft 332 kts 339°
2026-05-04 13:22 44.77994 26.14202 14147 ft 351 kts 317°
2026-05-04 13:22 44.79377 26.11373 14981 ft 360 kts 307°
2026-05-04 13:22 44.80637 26.08333 15763 ft 364 kts 305°
2026-05-04 13:22 44.81909 26.05219 16535 ft 369 kts 306°
2026-05-04 13:23 44.83197 26.02128 17305 ft 372 kts 306°
2026-05-04 13:23 44.84520 25.98991 17710 ft 382 kts 298°
2026-05-04 13:23 44.86283 25.96013 14450 ft 452 kts 323°
2026-05-04 13:23 44.87979 25.92707 16394 ft 396 kts 302°
2026-05-04 13:24 44.88977 25.89132 16401 ft 399 kts 289°
2026-05-04 13:24 44.89491 25.85341 16319 ft 383 kts 282°
2026-05-04 13:24 44.89820 25.81745 16416 ft 362 kts 282°
2026-05-04 13:25 44.90648 25.75109 16430 ft 328 kts 289°
2026-05-04 13:25 44.91198 25.72047 16419 ft 327 kts 291°
2026-05-04 13:25 44.91823 25.68962 16416 ft 328 kts 292°
2026-05-04 13:25 44.92475 25.65874 16424 ft 329 kts 292°
2026-05-04 13:26 44.93132 25.62779 16487 ft 327 kts 292°
2026-05-04 13:26 44.93778 25.59720 16615 ft 335 kts 292°
2026-05-04 13:26 44.94455 25.56518 16563 ft 347 kts 292°
2026-05-04 13:26 44.95163 25.53162 16685 ft 366 kts 291°
2026-05-04 13:27 44.95885 25.49689 16998 ft 370 kts 291°
2026-05-04 13:27 44.96602 25.46203 17255 ft 369 kts 291°
2026-05-04 13:27 44.97318 25.42704 17536 ft 377 kts 291°
2026-05-04 13:27 44.98042 25.39174 17805 ft 380 kts 291°
2026-05-04 13:28 44.98779 25.35572 18082 ft 381 kts 291°
2026-05-04 13:28 44.99517 25.32009 18442 ft 382 kts 291°
2026-05-04 13:28 45.00359 25.28436 18879 ft 386 kts 293°
2026-05-04 13:28 45.01286 25.24874 19310 ft 386 kts 294°
2026-05-04 13:29 45.02241 25.21348 19743 ft 386 kts 295°
2026-05-04 13:29 45.03381 25.17921 20180 ft 385 kts 301°
2026-05-04 13:29 45.04695 25.14661 20194 ft 382 kts 304°
2026-05-04 13:29 45.06076 25.11548 20581 ft 372 kts 306°
2026-05-04 13:30 45.07495 25.08471 20994 ft 378 kts 306°
2026-05-04 13:30 45.08942 25.05358 21378 ft 381 kts 306°
2026-05-04 13:30 45.10375 25.02255 21907 ft 379 kts 305°
2026-05-04 13:30 45.11816 24.99110 22523 ft 380 kts 305°
2026-05-04 13:31 45.13235 24.95986 23135 ft 380 kts 304°
2026-05-04 13:31 45.14659 24.92835 23769 ft 380 kts 304°
2026-05-04 13:31 45.16055 24.89732 24405 ft 379 kts 303°
2026-05-04 13:31 45.17475 24.86565 25073 ft 378 kts 303°
2026-05-04 13:32 45.18861 24.83465 25688 ft 377 kts 303°
2026-05-04 13:32 45.20266 24.80320 26215 ft 378 kts 303°
2026-05-04 13:32 45.21666 24.77182 26639 ft 381 kts 303°
2026-05-04 13:32 45.23086 24.73991 27067 ft 384 kts 302°
2026-05-04 13:33 45.24494 24.70827 27497 ft 386 kts 302°
2026-05-04 13:33 45.25942 24.67566 27934 ft 388 kts 302°
2026-05-04 13:33 45.27375 24.64336 28367 ft 389 kts 302°
2026-05-04 13:33 45.28798 24.61128 28795 ft 390 kts 302°
2026-05-04 13:34 45.30245 24.57859 29228 ft 391 kts 301°
2026-05-04 13:34 45.31695 24.54580 29640 ft 392 kts 301°
2026-05-04 13:34 45.33155 24.51274 29966 ft 395 kts 301°
2026-05-04 13:34 45.34604 24.47990 30290 ft 398 kts 301°
2026-05-04 13:35 45.36086 24.44628 30620 ft 400 kts 301°
2026-05-04 13:35 45.39035 24.37926 31269 ft 402 kts 301°
2026-05-04 13:35 45.40510 24.34567 31587 ft 399 kts 300°
2026-05-04 13:36 45.41983 24.31208 31919 ft 397 kts 300°
2026-05-04 13:36 45.43436 24.27891 32238 ft 395 kts 300°
2026-05-04 13:36 45.44893 24.24560 32557 ft 393 kts 301°
2026-05-04 13:36 45.46321 24.21292 32873 ft 390 kts 301°
2026-05-04 13:37 45.47751 24.18017 33193 ft 387 kts 301°
2026-05-04 13:37 45.49177 24.14744 33511 ft 387 kts 301°
2026-05-04 13:37 45.50599 24.11479 33781 ft 389 kts 303°
2026-05-04 13:37 45.51553 24.09288 33927 ft 391 kts 303°
2026-05-04 13:38 45.53455 24.04912 34201 ft 394 kts 303°
2026-05-04 13:38 45.54892 24.01603 34414 ft 396 kts 303°
2026-05-04 13:38 45.56345 23.98253 34633 ft 397 kts 303°
2026-05-04 13:38 45.57807 23.94877 34814 ft 394 kts 304°
2026-05-04 13:39 45.59230 23.91584 34983 ft 388 kts 304°
2026-05-04 13:39 45.60635 23.88325 35141 ft 385 kts 304°
2026-05-04 13:39 45.62036 23.85072 35322 ft 385 kts 304°
2026-05-04 13:39 45.63439 23.81818 35527 ft 385 kts 304°
2026-05-04 13:40 45.64838 23.78568 35851 ft 382 kts 304°
2026-05-04 13:40 45.66216 23.75358 36157 ft 378 kts 304°
2026-05-04 13:40 45.67568 23.72207 36451 ft 374 kts 304°
2026-05-04 13:40 45.68917 23.69061 36802 ft 371 kts 304°
2026-05-04 13:41 45.70276 23.65891 36988 ft 371 kts 304°
2026-05-04 13:41 45.71616 23.62767 37097 ft 374 kts 304°
2026-05-04 13:41 45.72983 23.59575 37195 ft 377 kts 304°
2026-05-04 13:42 45.75740 23.53120 37346 ft 382 kts 304°
2026-05-04 13:42 45.77117 23.49889 37433 ft 381 kts 304°
2026-05-04 13:42 45.79858 23.43443 37485 ft 382 kts 305°
2026-05-04 13:43 45.82538 23.36806 37599 ft 390 kts 300°
2026-05-04 13:43 45.83725 23.33328 37746 ft 392 kts 298°
2026-05-04 13:43 45.84884 23.29745 37896 ft 393 kts 297°
2026-05-04 13:44 45.86010 23.26216 38057 ft 394 kts 297°
2026-05-04 13:44 45.87165 23.22610 38080 ft 398 kts 297°
2026-05-04 13:44 45.89519 23.15338 38080 ft 407 kts 298°
2026-05-04 13:45 45.91949 23.07903 38080 ft 417 kts 298°
2026-05-04 13:45 45.94431 23.00324 38088 ft 426 kts 298°
2026-05-04 13:46 45.96968 22.92560 38088 ft 428 kts 298°
2026-05-04 13:46 45.99472 22.84874 38089 ft 426 kts 298°
2026-05-04 13:47 46.01979 22.77165 38081 ft 426 kts 298°
2026-05-04 13:47 46.04474 22.69453 38082 ft 424 kts 298°
2026-05-04 13:48 46.06950 22.61782 38084 ft 424 kts 298°
2026-05-04 13:48 46.09427 22.54087 38088 ft 425 kts 298°
2026-05-04 13:49 46.11917 22.46331 38088 ft 425 kts 298°
2026-05-04 13:49 46.14373 22.38657 38087 ft 425 kts 298°
2026-05-04 13:50 46.16832 22.30953 38081 ft 424 kts 297°
2026-05-04 13:50 46.19299 22.23196 38077 ft 424 kts 297°
2026-05-04 13:51 46.21727 22.15540 38083 ft 423 kts 297°
2026-05-04 13:51 46.24176 22.07795 38079 ft 424 kts 297°
2026-05-04 13:52 46.27836 21.96185 38060 ft 425 kts 297°
2026-05-04 13:53 46.30266 21.88441 38073 ft 422 kts 297°
2026-05-04 13:53 46.32671 21.80757 38072 ft 422 kts 297°
2026-05-04 13:54 46.36286 21.69158 38066 ft 422 kts 297°
2026-05-04 13:55 46.39867 21.57624 38068 ft 421 kts 297°
2026-05-04 13:55 46.43452 21.46025 38066 ft 421 kts 297°
2026-05-04 13:56 46.45817 21.38341 38071 ft 421 kts 297°
2026-05-04 13:57 46.49402 21.26743 38072 ft 420 kts 298°
2026-05-04 13:58 46.55035 21.11990 38067 ft 417 kts 302°
2026-05-04 13:58 46.59357 21.01118 38073 ft 417 kts 302°
2026-05-04 13:59 46.62225 20.93800 38071 ft 417 kts 302°
2026-05-04 14:00 46.66498 20.82799 38070 ft 417 kts 302°
2026-05-04 14:00 46.70742 20.71801 38066 ft 415 kts 302°
2026-05-04 14:01 46.73557 20.64479 38059 ft 416 kts 302°
2026-05-04 14:02 46.77757 20.53518 38065 ft 416 kts 302°
2026-05-04 14:02 46.80568 20.46157 38055 ft 416 kts 302°
2026-05-04 14:03 46.83389 20.38751 38061 ft 416 kts 302°
2026-05-04 14:03 46.86183 20.31394 38046 ft 415 kts 301°
2026-05-04 14:04 46.90344 20.20401 38052 ft 415 kts 301°
2026-05-04 14:04 46.93133 20.13007 38048 ft 415 kts 301°
2026-05-04 14:05 46.97277 20.01989 38042 ft 414 kts 301°
2026-05-04 14:06 47.00045 19.94603 38044 ft 414 kts 301°
2026-05-04 14:06 47.02805 19.87215 38044 ft 414 kts 301°
2026-05-04 14:07 47.05557 19.79853 38042 ft 413 kts 302°
2026-05-04 14:07 47.08541 19.72661 38041 ft 413 kts 304°
2026-05-04 14:08 47.11641 19.65585 38035 ft 413 kts 305°
2026-05-04 14:08 47.14735 19.58495 38034 ft 413 kts 304°
2026-05-04 14:09 47.19334 19.47812 38033 ft 413 kts 304°
2026-05-04 14:10 47.23905 19.37081 38036 ft 413 kts 304°
2026-05-04 14:10 47.26924 19.29960 38007 ft 413 kts 303°
2026-05-04 14:10 47.28448 19.26356 37438 ft 413 kts 303°
2026-05-04 14:11 47.29958 19.22782 36875 ft 409 kts 303°
2026-05-04 14:11 47.32927 19.15740 35861 ft 405 kts 303°
2026-05-04 14:11 47.34357 19.12212 35391 ft 403 kts 300°
2026-05-04 14:12 47.35644 19.08544 34896 ft 402 kts 297°
2026-05-04 14:12 47.36829 19.04826 34369 ft 401 kts 296°
2026-05-04 14:12 47.39077 18.97429 33362 ft 395 kts 296°
2026-05-04 14:13 47.40194 18.93742 32872 ft 391 kts 296°
2026-05-04 14:13 47.41302 18.90109 32387 ft 388 kts 296°
2026-05-04 14:13 47.42402 18.86524 31907 ft 384 kts 296°
2026-05-04 14:13 47.43500 18.82961 31428 ft 381 kts 296°
2026-05-04 14:14 47.44585 18.79450 30953 ft 378 kts 296°
2026-05-04 14:14 47.46746 18.72466 30017 ft 372 kts 296°
2026-05-04 14:14 47.47823 18.68986 29545 ft 369 kts 296°
2026-05-04 14:15 47.49921 18.62193 28626 ft 364 kts 296°
2026-05-04 14:15 47.52004 18.55438 27710 ft 358 kts 296°
2026-05-04 14:16 47.54029 18.48785 26797 ft 353 kts 293°
2026-05-04 14:16 47.54873 18.45434 26356 ft 351 kts 290°
2026-05-04 14:17 47.56304 18.38631 25470 ft 346 kts 288°
2026-05-04 14:17 47.56993 18.35226 25030 ft 343 kts 288°
2026-05-04 14:17 47.58361 18.28569 24160 ft 337 kts 287°
2026-05-04 14:18 47.59059 18.25225 23723 ft 334 kts 287°
2026-05-04 14:18 47.60418 18.18761 22882 ft 328 kts 287°
2026-05-04 14:19 47.61768 18.12352 22055 ft 323 kts 287°
2026-05-04 14:19 47.62430 18.09206 21647 ft 320 kts 287°
2026-05-04 14:19 47.63082 18.06103 21249 ft 317 kts 287°
2026-05-04 14:19 47.63733 18.02999 20847 ft 314 kts 287°
2026-05-04 14:20 47.64371 17.99953 20454 ft 312 kts 287°
2026-05-04 14:20 47.65011 17.96892 20056 ft 309 kts 287°
2026-05-04 14:20 47.65641 17.93875 19668 ft 306 kts 287°
2026-05-04 14:21 47.66881 17.87929 18893 ft 301 kts 286°
2026-05-04 14:21 47.67492 17.84990 18517 ft 298 kts 286°
2026-05-04 14:21 47.68097 17.82075 18155 ft 300 kts 286°
2026-05-04 14:21 47.68727 17.79027 17744 ft 315 kts 286°
2026-05-04 14:22 47.69366 17.75942 17349 ft 315 kts 286°
2026-05-04 14:22 47.70005 17.72854 16937 ft 311 kts 286°
2026-05-04 14:22 47.70634 17.69810 16545 ft 308 kts 285°
2026-05-04 14:22 47.71257 17.66791 16153 ft 305 kts 285°
2026-05-04 14:23 47.72474 17.60874 15394 ft 299 kts 285°
2026-05-04 14:23 47.73077 17.57931 14996 ft 297 kts 285°
2026-05-04 14:23 47.73671 17.55035 14624 ft 294 kts 285°
2026-05-04 14:24 47.74229 17.52119 14249 ft 290 kts 281°
2026-05-04 14:24 47.74532 17.49185 14003 ft 286 kts 270°
2026-05-04 14:24 47.74489 17.46214 13997 ft 296 kts 264°
2026-05-04 14:24 47.74288 17.43146 13987 ft 297 kts 262°
2026-05-04 14:25 47.74048 17.40123 13986 ft 298 kts 261°
2026-05-04 14:25 47.73574 17.34032 13989 ft 298 kts 261°
2026-05-04 14:25 47.73352 17.30982 13990 ft 298 kts 262°
2026-05-04 14:26 47.73134 17.27920 13989 ft 297 kts 262°
2026-05-04 14:26 47.72915 17.24865 13985 ft 297 kts 262°
2026-05-04 14:26 47.72699 17.21866 13984 ft 296 kts 262°
2026-05-04 14:26 47.72479 17.18809 13985 ft 296 kts 262°
2026-05-04 14:27 47.72257 17.15757 13983 ft 297 kts 262°
2026-05-04 14:27 47.72037 17.12744 13980 ft 296 kts 262°
2026-05-04 14:27 47.71815 17.09695 13980 ft 296 kts 262°
2026-05-04 14:27 47.71745 17.06670 13978 ft 298 kts 272°
2026-05-04 14:28 47.72288 17.03688 13969 ft 303 kts 295°
2026-05-04 14:28 47.73466 17.01084 13986 ft 307 kts 304°
2026-05-04 14:28 47.74785 16.98573 13978 ft 307 kts 305°
2026-05-04 14:28 47.76090 16.96090 13979 ft 307 kts 305°
2026-05-04 14:29 47.78661 16.91068 13979 ft 306 kts 304°
2026-05-04 14:29 47.81209 16.85984 13977 ft 305 kts 304°
2026-05-04 14:30 47.82470 16.83458 13962 ft 305 kts 304°
2026-05-04 14:30 47.83729 16.80933 13967 ft 306 kts 303°
2026-05-04 14:30 47.86251 16.75874 13956 ft 305 kts 303°
2026-05-04 14:31 47.87526 16.73317 13955 ft 306 kts 303°
2026-05-04 14:31 47.90051 16.68250 13962 ft 306 kts 304°
2026-05-04 14:32 47.92914 16.63547 13956 ft 309 kts 313°
2026-05-04 14:32 47.94479 16.61369 13955 ft 309 kts 315°
2026-05-04 14:32 47.96058 16.59211 13952 ft 309 kts 315°
2026-05-04 14:32 47.97642 16.57032 13950 ft 309 kts 314°
2026-05-04 14:33 47.99210 16.54851 13950 ft 309 kts 314°
2026-05-04 14:33 48.00768 16.52659 13953 ft 308 kts 313°
2026-05-04 14:33 48.02193 16.50303 13955 ft 305 kts 304°
2026-05-04 14:33 48.03388 16.47696 13956 ft 304 kts 299°
2026-05-04 14:34 48.04457 16.45006 13958 ft 303 kts 297°
2026-05-04 14:34 48.05510 16.42245 13702 ft 306 kts 296°
2026-05-04 14:34 48.06562 16.39506 13121 ft 307 kts 297°
2026-05-04 14:34 48.07624 16.36791 12560 ft 301 kts 297°
2026-05-04 14:35 48.08683 16.34122 11997 ft 296 kts 297°
2026-05-04 14:35 48.09718 16.31523 11434 ft 291 kts 297°
2026-05-04 14:35 48.10751 16.28927 10868 ft 287 kts 297°
2026-05-04 14:35 48.11749 16.26416 10363 ft 282 kts 297°
2026-05-04 14:36 48.12687 16.23919 10108 ft 271 kts 294°
2026-05-04 14:36 48.13515 16.21393 9793 ft 268 kts 292°
2026-05-04 14:36 48.14295 16.18887 9497 ft 265 kts 291°
2026-05-04 14:36 48.15064 16.16430 9186 ft 263 kts 292°
2026-05-04 14:37 48.15855 16.13947 8843 ft 262 kts 292°
2026-05-04 14:37 48.16641 16.11504 8510 ft 262 kts 293°
2026-05-04 14:37 48.17434 16.09050 8172 ft 261 kts 293°
2026-05-04 14:37 48.18213 16.06636 7836 ft 261 kts 293°
2026-05-04 14:38 48.18997 16.04201 7488 ft 260 kts 293°
2026-05-04 14:38 48.19785 16.01748 7148 ft 260 kts 293°
2026-05-04 14:38 48.20568 15.99310 6808 ft 260 kts 294°
2026-05-04 14:38 48.21392 15.96907 6468 ft 260 kts 300°
2026-05-04 14:39 48.22580 15.94868 6112 ft 262 kts 325°
2026-05-04 14:39 48.24269 15.93927 5780 ft 262 kts 355°
2026-05-04 14:39 48.26060 15.94206 5460 ft 260 kts 18°
2026-05-04 14:40 48.28904 15.97091 4948 ft 238 kts 69°
2026-05-04 14:40 48.29264 15.99368 4964 ft 221 kts 92°
2026-05-04 14:40 48.29090 16.01646 4983 ft 217 kts 107°
2026-05-04 14:40 48.28480 16.03686 4961 ft 214 kts 122°
2026-05-04 14:41 48.27774 16.05653 4963 ft 216 kts 118°
2026-05-04 14:41 48.27139 16.07618 4966 ft 204 kts 117°
2026-05-04 14:41 48.25965 16.11200 4981 ft 184 kts 118°
2026-05-04 14:42 48.24817 16.14673 4974 ft 186 kts 118°
2026-05-04 14:42 48.24243 16.16405 4975 ft 185 kts 119°
2026-05-04 14:42 48.23675 16.18128 4980 ft 186 kts 118°
2026-05-04 14:43 48.23116 16.19875 4979 ft 185 kts 118°
2026-05-04 14:43 48.22564 16.21613 4983 ft 181 kts 118°
2026-05-04 14:43 48.22047 16.23231 4964 ft 167 kts 118°
2026-05-04 14:43 48.21544 16.24789 4833 ft 167 kts 118°
2026-05-04 14:44 48.21032 16.26374 4559 ft 168 kts 118°
2026-05-04 14:44 48.20535 16.27917 4327 ft 166 kts 119°
2026-05-04 14:44 48.20035 16.29465 4092 ft 164 kts 119°
2026-05-04 14:44 48.19536 16.31008 3863 ft 162 kts 119°
2026-05-04 14:45 48.19051 16.32509 3638 ft 160 kts 120°
2026-05-04 14:45 48.18570 16.33997 3416 ft 158 kts 119°
2026-05-04 14:45 48.18090 16.35476 3198 ft 157 kts 120°
2026-05-04 14:45 48.17624 16.36916 2982 ft 153 kts 120°
2026-05-04 14:46 48.17154 16.38364 2813 ft 152 kts 120°
2026-05-04 14:46 48.16694 16.39785 2560 ft 153 kts 120°
2026-05-04 14:46 48.16235 16.41200 2357 ft 151 kts 120°
2026-05-04 14:46 48.15786 16.42586 2191 ft 144 kts 120°
2026-05-04 14:47 48.15356 16.43908 1932 ft 136 kts 120°
2026-05-04 14:47 48.14945 16.45172 1789 ft 136 kts 121°
2026-05-04 14:47 48.14527 16.46455 1597 ft 135 kts 120°
2026-05-04 14:47 48.14119 16.47713 1417 ft 136 kts 120°
2026-05-04 14:48 48.13702 16.48991 1235 ft 136 kts 120°
2026-05-04 14:48 48.13291 16.50251 1056 ft 136 kts 120°
2026-05-04 14:48 48.12877 16.51523 877 ft 136 kts 119°
2026-05-04 14:48 48.12468 16.52815 672 ft 137 kts 120°
2026-05-04 14:49 48.12051 16.54034 572 ft 113 kts 120°
2026-05-04 14:49 48.11826 16.54725 580 ft 40 kts 114°
2026-05-04 14:49 48.11796 16.54873 582 ft 0 kts 88°
2026-05-04 14:49 48.11796 16.54874 582 ft 0 kts 88°
2026-05-04 14:50 48.11796 16.54887 582 ft 4 kts 87°
2026-05-04 14:50 48.11800 16.54952 582 ft 8 kts 84°
2026-05-04 14:50 48.11816 16.55056 582 ft 11 kts 69°
2026-05-04 14:50 48.11821 16.55072 582 ft 0 kts 64°
2026-05-04 14:53 48.11824 16.55082 583 ft 3 kts 64°
2026-05-04 14:54 48.11849 16.55134 582 ft 9 kts 42°
2026-05-04 14:54 48.11877 16.55228 583 ft 11 kts 104°
2026-05-04 14:54 48.11845 16.55332 583 ft 10 kts 117°
2026-05-04 14:54 48.11850 16.55428 583 ft 8 kts 39°
2026-05-04 14:55 48.11910 16.55442 583 ft 8 kts 14°
2026-05-04 14:55 48.11965 16.55476 583 ft 8 kts 25°
2026-05-04 14:55 48.12018 16.55514 582 ft 8 kts 25°
2026-05-04 14:55 48.12065 16.55563 581 ft 7 kts 79°
2026-05-04 14:56 48.12056 16.55624 581 ft 0 kts 112°
2026-05-04 15:21 48.12060 16.55608 581 ft 2 kts 111°
2026-05-04 15:22 48.12067 16.55587 581 ft 2 kts 134°
2026-05-04 15:22 48.12080 16.55575 581 ft 2 kts 160°
2026-05-04 15:22 48.12103 16.55575 580 ft 1 kts 204°
2026-05-04 15:23 48.12110 16.55580 580 ft 0 kts 206°
2026-05-04 15:27 48.12103 16.55575 580 ft 2 kts 205°
2026-05-04 15:27 48.12021 16.55516 582 ft 10 kts 204°
2026-05-04 15:28 48.11894 16.55458 582 ft 8 kts 141°
2026-05-04 15:28 48.11867 16.55539 582 ft 8 kts 113°
2026-05-04 15:28 48.11820 16.55691 582 ft 7 kts 115°
2026-05-04 15:29 48.11798 16.55760 582 ft 7 kts 115°
2026-05-04 15:30 48.11749 16.55909 584 ft 0 kts 116°
2026-05-04 15:30 48.11725 16.55978 585 ft 5 kts 117°
2026-05-04 15:31 48.11676 16.56123 588 ft 11 kts 116°
2026-05-04 15:31 48.11630 16.56253 590 ft 16 kts 119°
2026-05-04 15:32 48.11471 16.56753 602 ft 17 kts 115°
2026-05-04 15:32 48.11359 16.57099 604 ft 20 kts 116°
2026-05-04 15:33 48.11424 16.57410 600 ft 20 kts 24°
2026-05-04 15:34 48.11839 16.57458 592 ft 22 kts 343°
2026-05-04 15:34 48.11992 16.57420 589 ft 22 kts 32°
2026-05-04 15:34 48.11997 16.57569 588 ft 0 kts 102°
2026-05-04 15:36 48.11997 16.57572 588 ft 1 kts 102°
2026-05-04 15:36 48.11991 16.57615 589 ft 7 kts 102°
2026-05-04 15:36 48.11974 16.57707 589 ft 10 kts 106°
2026-05-04 15:37 48.11910 16.57841 590 ft 24 kts 151°
2026-05-04 15:37 48.11625 16.57971 591 ft 79 kts 162°
2026-05-04 15:37 48.10839 16.58324 632 ft 151 kts 161°
2026-05-04 15:37 48.09774 16.58761 1262 ft 165 kts 166°
2026-05-04 15:38 48.08659 16.59041 2147 ft 166 kts 172°
2026-05-04 15:38 48.07512 16.59380 2801 ft 180 kts 159°
2026-05-04 15:38 48.06299 16.60109 3461 ft 198 kts 160°
2026-05-04 15:38 48.04959 16.60789 4152 ft 214 kts 163°
2026-05-04 15:39 48.03468 16.61431 4847 ft 232 kts 165°
2026-05-04 15:39 48.01880 16.62087 5558 ft 248 kts 165°
2026-05-04 15:39 47.98362 16.63406 7185 ft 269 kts 174°
2026-05-04 15:40 47.96500 16.63509 8177 ft 272 kts 182°
2026-05-04 15:40 47.94622 16.63346 9132 ft 275 kts 184°
2026-05-04 15:40 47.92720 16.63142 10062 ft 279 kts 184°
2026-05-04 15:40 47.90798 16.62965 10991 ft 282 kts 184°
2026-05-04 15:41 47.88842 16.62816 11910 ft 285 kts 183°
2026-05-04 15:41 47.86859 16.62685 12815 ft 289 kts 183°
2026-05-04 15:41 47.84869 16.62562 13689 ft 292 kts 183°
2026-05-04 15:41 47.82819 16.62437 14509 ft 298 kts 183°
2026-05-04 15:42 47.80765 16.62311 15313 ft 303 kts 183°
2026-05-04 15:42 47.78650 16.62180 16090 ft 308 kts 184°
2026-05-04 15:42 47.76505 16.62168 16829 ft 314 kts 177°
2026-05-04 15:42 47.74358 16.62809 17566 ft 321 kts 162°
2026-05-04 15:43 47.72300 16.64113 18292 ft 327 kts 156°
2026-05-04 15:43 47.70249 16.65625 19013 ft 331 kts 155°
2026-05-04 15:43 47.68188 16.67173 19694 ft 336 kts 155°
2026-05-04 15:43 47.66081 16.68720 20355 ft 341 kts 156°
2026-05-04 15:44 47.63929 16.70266 21022 ft 345 kts 156°
2026-05-04 15:44 47.61764 16.71802 21658 ft 349 kts 156°
2026-05-04 15:44 47.59557 16.73349 22294 ft 353 kts 157°
2026-05-04 15:44 47.57290 16.74746 22868 ft 356 kts 163°
2026-05-04 15:45 47.54895 16.75643 23445 ft 359 kts 173°
2026-05-04 15:45 47.52441 16.76071 24018 ft 362 kts 177°
2026-05-04 15:45 47.49911 16.76303 24589 ft 365 kts 179°
2026-05-04 15:45 47.47379 16.76475 25108 ft 369 kts 179°
2026-05-04 15:46 47.44792 16.76649 25652 ft 372 kts 179°
2026-05-04 15:46 47.42227 16.76838 26144 ft 376 kts 178°
2026-05-04 15:46 47.39604 16.77049 26625 ft 379 kts 178°
2026-05-04 15:46 47.36959 16.77276 27106 ft 383 kts 178°
2026-05-04 15:47 47.34284 16.77516 27574 ft 386 kts 178°
2026-05-04 15:47 47.31625 16.77761 28029 ft 389 kts 178°
2026-05-04 15:47 47.28919 16.78015 28543 ft 391 kts 178°
2026-05-04 15:47 47.26212 16.78271 29035 ft 392 kts 178°
2026-05-04 15:48 47.23495 16.78529 29466 ft 395 kts 178°
2026-05-04 15:48 47.20739 16.78791 29863 ft 399 kts 178°
2026-05-04 15:48 47.15183 16.79318 30667 ft 405 kts 178°
2026-05-04 15:49 47.12334 16.79589 31064 ft 408 kts 178°
2026-05-04 15:49 47.09495 16.79859 31447 ft 411 kts 178°
2026-05-04 15:49 47.06621 16.80132 31842 ft 414 kts 178°
2026-05-04 15:49 47.03725 16.80406 32237 ft 416 kts 178°
2026-05-04 15:50 47.00805 16.80683 32613 ft 419 kts 178°
2026-05-04 15:50 46.97883 16.80959 32971 ft 422 kts 178°
2026-05-04 15:50 46.94913 16.81364 33366 ft 424 kts 173°
2026-05-04 15:50 46.91997 16.82206 33698 ft 428 kts 166°
2026-05-04 15:51 46.89143 16.83539 34047 ft 432 kts 159°
2026-05-04 15:51 46.86370 16.85363 34391 ft 435 kts 153°
2026-05-04 15:51 46.83767 16.87615 34683 ft 438 kts 146°
2026-05-04 15:51 46.81348 16.90284 34947 ft 440 kts 138°
2026-05-04 15:52 46.79356 16.93652 34982 ft 443 kts 119°
2026-05-04 15:52 46.78142 16.97783 34999 ft 441 kts 105°
2026-05-04 15:52 46.76730 17.06368 34991 ft 437 kts 101°
2026-05-04 15:53 46.75013 17.14906 34994 ft 440 kts 108°
2026-05-04 15:53 46.72702 17.23130 34997 ft 440 kts 113°
2026-05-04 15:54 46.70077 17.31140 35000 ft 440 kts 115°
2026-05-04 15:54 46.67327 17.39104 35001 ft 440 kts 115°
2026-05-04 15:55 46.64568 17.46991 34998 ft 439 kts 115°
2026-05-04 15:55 46.61747 17.54843 34990 ft 440 kts 118°
2026-05-04 15:56 46.58414 17.62289 35004 ft 441 kts 123°
2026-05-04 15:56 46.54825 17.69514 35003 ft 441 kts 125°
2026-05-04 15:57 46.51241 17.76664 35012 ft 441 kts 125°
2026-05-04 15:57 46.47646 17.83890 35013 ft 441 kts 124°
2026-05-04 15:58 46.44084 17.91091 35016 ft 441 kts 124°
2026-05-04 15:58 46.40530 17.98293 35021 ft 441 kts 124°
2026-05-04 15:59 46.36991 18.05459 35023 ft 441 kts 124°
2026-05-04 15:59 46.33416 18.12687 35024 ft 441 kts 124°
2026-05-04 16:00 46.29863 18.19856 35025 ft 441 kts 124°
2026-05-04 16:00 46.26299 18.27031 35027 ft 441 kts 124°
2026-05-04 16:01 46.22731 18.34193 35028 ft 441 kts 124°
2026-05-04 16:01 46.19144 18.41374 35029 ft 441 kts 124°
2026-05-04 16:02 46.15568 18.48515 35029 ft 441 kts 124°
2026-05-04 16:03 46.10190 18.59222 35027 ft 441 kts 123°
2026-05-04 16:03 46.06585 18.66374 35027 ft 440 kts 124°
2026-05-04 16:04 46.03003 18.73465 35029 ft 441 kts 124°
2026-05-04 16:04 45.97581 18.84163 35030 ft 442 kts 124°
2026-05-04 16:05 45.93864 18.91155 35032 ft 442 kts 129°
2026-05-04 16:05 45.89310 18.97126 35033 ft 444 kts 142°
2026-05-04 16:06 45.86837 18.99702 35034 ft 444 kts 144°
2026-05-04 16:07 45.76621 19.09686 35035 ft 444 kts 144°
2026-05-04 16:08 45.66427 19.19743 35035 ft 447 kts 143°
2026-05-04 16:09 45.53738 19.32351 35036 ft 446 kts 143°
2026-05-04 16:10 45.43543 19.42451 35039 ft 447 kts 143°
2026-05-04 16:11 45.33292 19.52561 35041 ft 449 kts 143°
2026-05-04 16:12 45.17915 19.67642 35045 ft 451 kts 144°
2026-05-04 16:13 45.07577 19.77725 35036 ft 452 kts 143°
2026-05-04 16:14 44.97197 19.87801 35036 ft 452 kts 143°
2026-05-04 16:16 44.84234 20.00323 35051 ft 454 kts 143°
2026-05-04 16:17 44.71252 20.12795 35070 ft 454 kts 143°
2026-05-04 16:18 44.60817 20.22769 35063 ft 453 kts 143°
2026-05-04 16:19 44.47786 20.35163 35064 ft 453 kts 143°
2026-05-04 16:20 44.34734 20.47507 35078 ft 452 kts 143°
2026-05-04 16:22 44.21771 20.59699 35050 ft 446 kts 143°
2026-05-04 16:22 44.13952 20.66441 33940 ft 434 kts 147°
2026-05-04 16:23 44.06227 20.72643 32503 ft 426 kts 147°
2026-05-04 16:24 43.96108 20.80837 30598 ft 415 kts 147°
2026-05-04 16:25 43.91193 20.84836 29670 ft 409 kts 147°
2026-05-04 16:26 43.81519 20.92699 27815 ft 396 kts 146°
2026-05-04 16:26 43.75255 20.99612 26486 ft 380 kts 130°
2026-05-04 16:27 43.71744 21.04959 25597 ft 372 kts 127°
2026-05-04 16:28 43.66701 21.12853 24274 ft 362 kts 128°
2026-05-04 16:28 43.59553 21.23838 21872 ft 357 kts 128°
2026-05-04 16:29 43.53221 21.33543 20771 ft 335 kts 124°
2026-05-04 16:30 43.49120 21.41131 19569 ft 324 kts 121°
2026-05-04 16:31 43.46498 21.46085 18778 ft 317 kts 119°
2026-05-04 16:31 43.43595 21.53900 17618 ft 301 kts 107°
2026-05-04 16:32 43.41208 21.61711 16485 ft 292 kts 108°
2026-05-04 16:33 43.39613 21.66792 16076 ft 300 kts 109°
2026-05-04 16:33 43.37938 21.72106 15325 ft 300 kts 110°
2026-05-04 16:34 43.36310 21.77224 14833 ft 283 kts 110°
2026-05-04 16:34 43.35536 21.79666 14384 ft 284 kts 110°
2026-05-04 16:35 43.32972 21.86941 13192 ft 284 kts 130°
2026-05-04 16:35 43.27371 21.88080 12181 ft 294 kts 200°
2026-05-04 16:36 43.25627 21.86616 11815 ft 295 kts 224°
2026-05-04 16:36 43.24130 21.81606 11120 ft 288 kts 265°
2026-05-04 16:37 43.22989 21.76514 10418 ft 281 kts 229°
2026-05-04 16:37 43.21529 21.74779 10103 ft 274 kts 212°
2026-05-04 16:37 43.18206 21.72836 9690 ft 250 kts 180°
2026-05-04 16:38 43.14957 21.73691 9211 ft 238 kts 159°
2026-05-04 16:39 43.10229 21.75596 8495 ft 238 kts 161°
2026-05-04 16:39 43.07699 21.78083 7998 ft 226 kts 110°
2026-05-04 16:40 43.07425 21.82220 7510 ft 219 kts 75°
2026-05-04 16:40 43.09221 21.85366 7028 ft 218 kts 30°
2026-05-04 16:41 43.12137 21.86053 6533 ft 221 kts 346°
2026-05-04 16:41 43.15839 21.82318 5787 ft 222 kts 321°
2026-05-04 16:42 43.19344 21.78237 5059 ft 219 kts 322°
2026-05-04 16:43 43.21668 21.75562 5033 ft 220 kts 322°
2026-05-04 16:43 43.23993 21.72879 5034 ft 220 kts 322°
2026-05-04 16:43 43.25160 21.71532 5033 ft 220 kts 322°
2026-05-04 16:44 43.29841 21.66120 5032 ft 221 kts 322°
2026-05-04 16:45 43.32193 21.63396 5033 ft 220 kts 322°
2026-05-04 16:46 43.35696 21.59333 5035 ft 220 kts 322°
2026-05-04 16:46 43.38036 21.56617 5032 ft 220 kts 322°
2026-05-04 16:47 43.40367 21.53907 5032 ft 220 kts 321°
2026-05-04 16:47 43.42707 21.51184 5036 ft 220 kts 322°
2026-05-04 16:48 43.46649 21.49957 5040 ft 186 kts 34°
2026-05-04 16:48 43.47601 21.51082 4890 ft 177 kts 49°
2026-05-04 16:49 43.48292 21.54145 4485 ft 174 kts 95°
2026-05-04 16:49 43.47221 21.57043 4064 ft 178 kts 141°
2026-05-04 16:50 43.44891 21.57949 3653 ft 179 kts 184°
2026-05-04 16:50 43.42641 21.58865 3547 ft 176 kts 131°
2026-05-04 16:51 43.41268 21.61624 3539 ft 175 kts 115°
2026-05-04 16:51 43.40758 21.63155 3537 ft 175 kts 112°
2026-05-04 16:51 43.39794 21.66225 3536 ft 175 kts 112°
2026-05-04 16:52 43.38826 21.69290 3535 ft 175 kts 111°
2026-05-04 16:52 43.38341 21.70822 3449 ft 178 kts 111°
2026-05-04 16:53 43.37378 21.73869 3077 ft 174 kts 112°
2026-05-04 16:53 43.36000 21.78214 2355 ft 165 kts 112°
2026-05-04 16:54 43.35533 21.79678 1863 ft 172 kts 111°
2026-05-04 16:55 43.33756 21.85280 652 ft 122 kts 111°
2026-05-04 16:55 43.33383 21.86454 659 ft 21 kts 116°
2026-05-04 16:56 43.33357 21.86532 659 ft 3 kts 110°
2026-05-04 16:56 43.33366 21.86611 660 ft 5 kts 46°
2026-05-04 16:57 43.33383 21.86628 661 ft 0 kts 29°
2026-05-04 16:57 43.33390 21.86633 661 ft 3 kts 29°
2026-05-04 16:58 43.33583 21.86676 666 ft 9 kts 336°
2026-05-04 16:58 43.33588 21.86673 666 ft 0 kts 335°
2026-05-04 17:00 43.33679 21.86618 667 ft 0 kts 27°